Date,TemperatureHighF,TemperatureAvgF,TemperatureLowF,DewpointHighF,DewpointAvgF,DewpointLowF,HumidityHigh,HumidityAvg,HumidityLow,PressureMaxIn,PressureMinIn,WindSpeedMaxMPH,WindSpeedAvgMPH,GustSpeedMaxMPH,PrecipitationSumIn
2013-1-1,37,30,24,28,24,20,91,80,64,30.38,30.12,20,6,20,0.00
2013-1-2,46,31,19,28,24,16,92,75,44,30.43,30.28,15,3,16,0.00
2013-1-3,46,32,23,28,23,21,91,71,38,30.56,30.42,14,3,15,0.00
2013-1-4,44,36,28,32,28,22,87,73,54,30.52,30.33,15,4,16,0.00
2013-1-5,54,42,32,33,28,19,88,61,29,30.39,30.19,18,6,20,0.00
2013-1-6,56,39,27,30,25,22,85,59,30,30.49,30.34,10,3,10,0.00
2013-1-7,52,38,26,31,26,20,84,62,38,30.34,30.09,16,4,16,0.00
2013-1-8,53,44,34,43,37,30,88,75,63,30.18,30.01,12,4,12,0.00
2013-1-9,49,44,42,48,41,36,94,88,75,30.28,30.03,27,11,31,0.47
2013-1-10,55,48,46,50,46,44,95,92,82,30.03,29.82,16,6,17,0.17
2013-1-11,70,55,42,52,46,35,92,73,48,29.85,29.65,25,9,25,0.00
2013-1-12,52,39,26,35,26,18,79,60,45,30.14,29.81,30,12,31,0.00
2013-1-13,34,27,20,22,16,12,84,63,42,30.40,30.13,22,8,25,0.00
2013-1-14,38,27,18,18,15,11,87,61,35,30.46,30.31,18,5,18,0.00
2013-1-15,27,26,23,21,19,18,81,75,69,30.35,30.30,11,4,13,0.00
2013-1-16,52,40,20,32,26,15,87,60,29,30.32,30.19,17,4,17,0.00
2013-1-17,57,42,32,34,31,28,83,66,39,30.57,30.32,15,4,15,0.00
2013-1-18,62,45,30,35,32,26,88,62,35,30.51,30.17,20,6,23,0.00
2013-1-19,64,48,35,38,34,30,83,62,36,30.24,30.09,13,4,15,0.00
2013-1-20,66,45,27,38,32,24,90,65,31,30.24,30.08,17,2,18,0.00
2013-1-21,46,36,26,34,19,12,76,51,33,30.44,30.22,29,8,30,0.00
2013-1-22,64,43,21,42,30,18,87,64,38,30.32,30.14,19,4,21,0.00
2013-1-23,69,48,31,49,40,29,94,75,46,30.24,30.06,17,2,17,0.00
2013-1-24,43,38,34,39,34,30,94,84,71,30.25,30.10,17,5,18,0.00
2013-1-25,52,39,28,35,30,25,90,73,48,30.30,30.13,15,4,16,0.00
2013-1-26,58,43,27,45,35,25,93,75,48,30.26,30.01,15,3,17,0.00
2013-1-27,78,63,50,58,53,45,92,72,43,30.01,29.73,28,12,28,0.00
2013-1-28,81,66,54,63,54,48,91,68,36,29.86,29.65,25,9,28,0.00
2013-1-29,67,58,40,62,42,25,89,59,29,29.73,29.47,40,10,40,0.00
2013-1-30,50,40,30,32,22,14,75,52,24,30.12,29.73,27,10,29,0.00
2013-1-31,66,42,26,32,23,16,77,50,19,30.39,30.07,32,6,32,0.00
2013-2-1,54,37,23,29,22,14,78,55,35,30.44,30.12,17,5,19,0.00
2013-2-2,64,45,30,36,29,25,84,56,25,30.36,30.14,20,4,20,0.00
2013-2-3,68,50,30,34,27,19,81,47,15,30.34,29.88,23,6,26,0.00
2013-2-4,68,57,40,50,37,25,80,51,21,29.93,29.77,27,7,27,0.00
2013-2-5,69,49,29,52,36,24,92,65,24,30.03,29.91,17,3,18,0.00
2013-2-6,74,61,52,57,53,50,93,77,46,30.01,29.72,21,6,21,0.00
2013-2-7,63,54,40,56,44,30,92,71,37,30.21,29.69,33,11,35,0.00
2013-2-8,58,42,27,33,26,17,91,58,21,30.31,30.09,14,4,16,0.00
2013-2-9,57,50,44,54,43,25,92,77,45,30.09,29.59,33,12,33,0.03
2013-2-10,64,51,36,44,26,20,68,40,18,30.03,29.70,21,7,23,0.00
2013-2-11,55,43,32,31,27,22,81,54,31,30.22,30.03,18,5,18,0.00
2013-2-12,45,38,33,38,35,31,95,89,61,30.15,29.93,26,8,26,0.83
2013-2-13,59,43,28,38,34,27,96,73,39,30.17,29.99,9,3,10,0.00
2013-2-14,64,46,29,41,34,27,93,68,30,30.24,29.99,35,8,37,0.00
2013-2-15,46,39,32,37,28,23,85,65,44,30.46,30.24,26,8,37,0.00
2013-2-16,58,40,27,38,30,25,94,69,34,30.45,30.09,16,4,19,0.00
2013-2-17,74,53,32,34,29,22,80,45,15,30.09,29.69,26,9,29,0.00
2013-2-18,60,52,37,46,34,25,82,52,28,30.14,29.60,31,11,31,0.00
2013-2-19,57,39,27,32,26,22,86,63,26,30.32,30.13,20,4,22,0.00
2013-2-20,40,38,35,38,36,34,94,94,93,29.86,29.74,29,14,29,0.38
2013-2-21,50,37,28,42,33,22,95,86,71,30.09,29.68,27,8,28,0.26
2013-2-22,42,32,23,28,23,18,86,71,52,30.22,30.06,15,5,16,0.00
2013-2-23,51,37,26,35,29,23,93,74,52,30.16,29.85,20,5,21,0.00
2013-2-24,68,51,37,46,39,32,94,66,43,29.85,29.55,30,10,37,0.11
2013-2-25,42,36,33,40,34,31,96,95,89,29.86,29.50,32,16,40,0.59
2013-2-26,51,39,30,36,31,26,90,76,54,29.97,29.84,24,8,26,0.00
2013-2-27,51,40,30,35,29,25,89,68,42,30.31,29.96,32,9,32,0.00
2013-2-28,56,40,27,32,27,22,92,64,28,30.36,30.23,21,5,24,0.00
2013-3-1,54,40,29,36,30,26,90,71,41,30.41,30.24,28,6,31,0.00
2013-3-2,66,44,26,40,32,24,93,66,34,30.47,30.17,12,4,15,0.00
2013-3-3,81,58,33,40,32,28,91,46,15,30.17,29.55,26,9,27,0.00
2013-3-4,78,63,46,45,36,26,69,40,22,30.08,29.51,43,12,43,0.00
2013-3-5,55,44,32,34,21,12,71,43,19,30.43,30.08,40,9,40,0.00
2013-3-6,57,42,26,27,24,22,84,52,27,30.47,30.14,18,6,19,0.00
2013-3-7,74,56,40,44,30,22,57,38,23,30.15,29.95,25,10,25,0.00
2013-3-8,64,59,54,59,53,44,87,79,57,30.00,29.79,29,13,30,0.00
2013-3-9,72,64,58,62,46,26,91,60,21,29.79,29.57,34,10,37,0.02
2013-3-10,57,44,34,38,28,20,67,53,34,30.14,29.71,39,14,39,0.00
2013-3-11,68,45,22,32,26,18,85,50,23,30.16,29.93,18,5,18,0.00
2013-3-12,61,50,40,39,32,25,82,52,33,30.35,29.92,26,10,29,0.00
2013-3-13,69,54,31,42,36,29,93,56,29,30.45,30.25,18,5,19,0.00
2013-3-14,80,61,39,46,40,34,87,50,26,30.26,30.03,19,7,19,0.00
2013-3-15,88,69,48,46,42,37,72,41,17,30.05,29.68,22,9,24,0.00
2013-3-16,78,65,52,54,45,40,65,49,33,29.74,29.61,34,10,34,0.00
2013-3-17,62,50,39,43,38,33,79,63,46,29.87,29.61,29,8,34,0.00
2013-3-18,63,53,41,41,36,27,90,57,27,30.00,29.58,25,8,31,0.00
2013-3-19,61,51,38,45,37,29,81,58,48,30.20,29.95,20,6,20,0.00
2013-3-20,64,51,35,40,33,26,90,56,25,30.36,29.94,15,4,17,0.00
2013-3-21,82,63,50,54,42,29,80,47,27,29.93,29.35,28,10,30,0.00
2013-3-22,57,45,40,49,38,36,92,78,66,29.88,29.46,31,11,35,0.00
2013-3-23,53,46,38,45,40,31,92,82,74,30.02,29.65,31,7,31,0.00
2013-3-24,48,39,30,31,22,14,80,53,27,30.29,30.00,32,13,32,0.00
2013-3-25,51,36,21,23,17,14,81,49,25,30.47,30.28,22,6,24,0.00
2013-3-26,62,44,20,25,20,15,85,42,19,30.51,30.18,21,7,23,0.00
2013-3-27,77,58,43,44,34,24,56,41,25,30.19,29.92,28,11,28,0.00
2013-3-28,79,64,51,54,49,43,79,59,38,30.05,29.91,24,10,26,0.00
2013-3-29,80,66,56,61,56,52,90,73,46,30.03,29.87,24,8,26,0.00
2013-3-30,83,68,52,61,57,50,93,70,43,29.93,29.77,15,4,17,0.00
2013-3-31,71,63,55,60,49,42,91,62,37,30.02,29.77,47,8,47,0.00
2013-4-1,79,60,44,56,47,40,86,65,38,30.04,29.86,24,7,27,0.06
2013-4-2,46,41,38,42,38,35,95,91,82,30.15,29.99,23,12,24,0.02
2013-4-3,41,39,37,39,37,36,95,95,93,30.26,30.12,17,8,19,0.19
2013-4-4,50,42,37,42,38,35,95,87,71,30.29,30.18,13,5,16,0.00
2013-4-5,70,51,32,49,42,30,95,73,43,30.26,29.86,23,6,27,0.00
2013-4-6,78,65,53,53,49,46,84,60,35,29.86,29.73,23,6,23,0.00
2013-4-7,86,69,55,64,59,51,91,72,41,29.77,29.48,30,10,32,0.00
2013-4-8,88,74,64,65,63,60,89,70,41,29.54,29.38,30,14,30,0.00
2013-4-9,84,62,33,64,52,29,95,73,41,29.91,29.44,38,15,39,0.08
2013-4-10,48,41,29,34,31,28,96,69,48,30.05,29.81,34,5,39,0.16
2013-4-11,63,45,31,41,32,23,88,63,31,30.06,29.76,16,4,16,0.00
2013-4-12,67,53,42,48,43,38,89,69,45,30.02,29.82,20,5,20,0.00
2013-4-13,77,63,51,50,45,41,76,55,29,29.91,29.61,22,10,23,0.00
2013-4-14,93,72,55,56,49,34,83,51,13,29.63,29.34,25,9,25,0.00
2013-4-15,79,66,52,57,48,40,84,56,35,29.67,29.44,21,7,21,0.00
2013-4-16,61,54,47,52,47,43,92,77,63,29.91,29.65,21,9,21,0.00
2013-4-17,82,60,48,72,57,46,94,89,69,29.82,29.39,34,7,37,0.64
2013-4-18,54,45,37,45,33,27,95,66,39,30.21,29.67,36,14,39,0.01
2013-4-19,69,50,30,36,27,21,81,47,17,30.31,30.05,18,6,20,0.00
2013-4-20,73,59,46,37,32,29,60,38,24,30.06,29.83,33,14,35,0.00
2013-4-21,74,61,50,52,46,33,79,58,41,30.07,29.93,23,9,25,0.00
2013-4-22,87,69,54,60,55,49,86,64,35,30.00,29.58,27,12,29,0.00
2013-4-23,72,42,36,57,35,28,92,76,57,30.34,29.61,33,14,38,0.00
2013-4-24,61,46,29,35,30,26,89,59,32,30.40,30.23,19,5,19,0.00
2013-4-25,72,56,33,42,34,27,90,49,20,30.34,30.01,22,5,22,0.00
2013-4-26,87,69,60,61,52,41,85,56,26,30.08,29.77,36,11,36,0.01
2013-4-27,79,65,54,56,52,47,92,66,33,30.12,29.94,25,7,25,0.00
2013-4-28,90,70,48,54,48,41,92,53,19,29.98,29.69,17,5,18,0.00
2013-4-29,92,76,58,60,48,36,75,42,14,29.77,29.58,29,10,29,0.00
2013-4-30,91,77,63,62,58,50,84,57,26,29.64,29.51,29,12,33,0.00
2013-5-1,86,69,45,66,57,38,84,66,43,30.12,29.58,44,13,44,0.00
2013-5-2,54,44,38,38,35,29,95,71,40,30.47,30.11,40,18,44,0.03
2013-5-3,71,46,0,32,22,0,74,33,15,30.46,29.97,24,5,26,0.00
2013-5-4,74,56,35,39,28,12,83,42,10,30.06,29.92,26,7,28,0.00
2013-5-5,72,59,40,48,45,36,88,60,39,30.21,30.03,17,6,18,0.00
2013-5-6,76,63,45,51,48,43,92,61,36,30.12,29.94,13,3,14,0.00
2013-5-7,87,71,54,52,48,45,83,48,24,30.01,29.77,23,7,25,0.00
2013-5-8,86,75,62,65,58,48,77,55,40,29.81,29.62,31,10,37,0.00
2013-5-9,84,70,60,65,61,54,92,76,42,29.88,29.71,19,6,22,0.02
2013-5-10,74,64,56,60,56,52,93,76,48,30.08,29.84,37,8,37,0.17
2013-5-11,82,66,50,58,51,41,93,64,25,30.21,30.08,24,6,26,0.00
2013-5-12,84,67,48,49,44,37,89,49,25,30.25,29.99,18,5,21,0.00
2013-5-13,94,77,58,49,44,36,66,35,14,30.09,29.94,24,8,27,0.00
2013-5-14,91,79,63,59,50,40,58,38,23,30.00,29.75,28,9,30,0.00
2013-5-15,86,73,66,66,61,48,89,67,35,29.83,29.61,23,8,30,0.04
2013-5-16,83,71,62,65,62,59,91,76,48,29.75,29.65,18,7,20,0.00
2013-5-17,94,77,66,74,68,62,91,77,49,29.75,29.62,27,7,28,0.00
2013-5-18,101,84,71,75,68,57,90,63,27,29.70,29.44,29,9,32,0.17
2013-5-19,100,86,75,70,50,24,76,39,8,29.56,29.41,29,11,33,0.00
2013-5-20,98,81,64,65,49,32,78,38,10,29.65,29.47,29,6,33,0.00
2013-5-21,79,70,55,64,53,46,93,58,32,29.87,29.61,29,9,30,0.22
2013-5-22,91,74,54,57,50,41,91,51,19,29.88,29.70,23,6,23,0.00
2013-5-23,88,76,64,70,64,50,86,68,43,29.95,29.67,34,11,36,0.00
2013-5-24,92,77,65,72,65,59,90,70,37,30.02,29.89,26,10,28,0.00
2013-5-25,88,76,65,68,64,59,87,69,46,30.05,29.83,23,8,23,0.00
2013-5-26,96,82,70,70,66,61,88,61,32,29.92,29.69,29,11,30,0.00
2013-5-27,97,84,72,69,67,64,81,58,36,29.76,29.51,37,15,37,0.00
2013-5-28,83,78,76,71,68,65,82,70,61,29.66,29.48,31,10,33,0.00
2013-5-29,88,80,74,70,67,65,79,67,47,29.62,29.39,41,13,41,0.02
2013-5-30,101,87,76,72,60,31,80,49,9,29.58,29.45,28,10,33,0.00
2013-5-31,106,90,75,70,63,37,76,48,12,29.61,29.37,30,9,30,0.00
2013-6-1,89,79,69,69,52,42,83,44,20,29.95,29.46,37,10,37,0.00
2013-6-2,86,72,56,54,49,45,84,48,26,30.07,29.85,20,5,20,0.00
2013-6-3,96,80,65,61,56,50,66,46,29,29.92,29.62,26,9,27,0.00
2013-6-4,100,85,69,68,64,57,83,52,35,29.76,29.57,31,12,32,0.00
2013-6-5,90,80,71,69,65,60,83,61,48,29.85,29.62,28,10,29,0.00
2013-6-6,82,72,63,66,62,58,93,73,48,29.92,29.78,28,9,29,1.27
2013-6-7,86,74,60,64,58,55,92,63,38,29.96,29.79,15,3,16,0.00
2013-6-8,91,78,64,62,58,50,91,52,29,29.85,29.60,46,10,53,0.04
2013-6-9,94,81,62,69,62,55,93,57,29,29.89,29.77,34,4,53,0.31
2013-6-10,100,85,68,69,62,52,86,51,21,29.85,29.73,22,8,24,0.00
2013-6-11,98,86,72,68,61,55,61,43,27,29.86,29.71,23,8,29,0.00
2013-6-12,99,87,74,68,66,63,78,51,32,29.88,29.73,24,9,25,0.00
2013-6-13,84,80,76,67,66,65,73,61,53,29.86,29.83,10,4,11,0.00
2013-6-14,93,87,79,64,61,58,59,44,33,29.87,29.78,19,6,21,0.00
2013-6-15,88,79,68,73,67,64,92,68,47,29.97,29.76,24,6,25,0.42
2013-6-16,97,84,70,73,69,67,89,63,39,29.93,29.71,18,6,20,0.00
2013-6-17,92,80,66,71,66,60,92,64,40,29.90,29.71,48,6,56,0.08
2013-6-18,89,80,70,69,66,62,90,66,42,29.95,29.82,16,5,17,0.00
2013-6-19,85,75,70,71,67,62,91,77,48,30.00,29.71,30,6,32,0.22
2013-6-20,96,84,71,73,68,63,87,61,36,29.86,29.73,31,10,31,0.00
2013-6-21,96,87,78,72,68,62,71,54,35,29.89,29.75,26,10,27,0.00
2013-6-22,97,87,77,69,64,60,61,47,33,29.84,29.66,31,12,32,0.00
2013-6-23,100,88,78,67,61,55,63,42,24,29.76,29.65,32,13,32,0.00
2013-6-24,97,87,76,67,63,58,63,47,32,29.83,29.67,31,12,32,0.00
2013-6-25,102,90,78,72,68,61,68,50,34,29.77,29.59,30,12,32,0.00
2013-6-26,104,92,79,71,67,61,64,44,29,29.74,29.64,22,9,23,0.00
2013-6-27,107,93,78,69,65,57,66,43,21,29.90,29.69,44,7,45,0.00
2013-6-28,104,90,76,64,61,56,64,40,22,29.90,29.76,24,7,36,0.00
2013-6-29,99,86,71,65,59,56,70,42,26,29.89,29.71,20,5,24,0.01
2013-6-30,93,82,72,63,56,51,70,43,26,29.91,29.79,21,7,21,0.00
2013-7-1,87,76,62,56,52,47,75,46,28,30.05,29.91,25,6,25,0.00
2013-7-2,90,76,57,52,46,39,67,39,18,30.09,29.92,17,3,17,0.00
2013-7-3,93,78,59,51,47,44,68,37,20,30.01,29.82,15,3,15,0.00
2013-7-4,97,83,69,60,51,47,65,35,20,29.91,29.73,23,6,28,0.00
2013-7-5,100,87,71,59,54,46,64,36,18,29.85,29.67,26,8,28,0.00
2013-7-6,100,88,76,61,56,49,53,36,19,29.81,29.68,25,9,29,0.00
2013-7-7,99,88,76,63,60,56,56,39,26,29.87,29.77,18,7,20,0.00
2013-7-8,102,90,75,69,64,61,67,45,27,29.93,29.80,19,6,21,0.00
2013-7-9,102,91,78,68,64,61,66,43,28,29.94,29.79,22,9,24,0.00
2013-7-10,103,92,78,66,62,60,57,38,25,29.92,29.75,19,5,21,0.00
2013-7-11,107,91,80,68,62,59,57,40,22,29.85,29.71,23,4,25,0.00
2013-7-12,104,93,78,68,63,59,69,40,23,29.81,29.72,20,6,23,0.00
2013-7-13,107,94,79,67,61,53,64,37,18,29.86,29.70,19,6,19,0.00
2013-7-14,90,76,64,65,62,58,92,64,42,29.98,29.74,32,9,34,0.32
2013-7-15,77,69,64,67,63,61,92,83,63,30.04,29.94,16,6,17,0.01
2013-7-16,74,70,68,71,67,65,91,91,89,30.16,29.99,18,5,18,2.13
2013-7-17,85,74,70,75,70,67,90,87,64,30.21,30.09,19,4,22,0.11
2013-7-18,90,79,68,72,69,65,90,73,48,30.13,29.93,20,4,22,0.00
2013-7-19,95,83,70,72,68,64,90,64,38,29.97,29.79,18,4,20,0.00
2013-7-20,97,86,72,71,67,62,89,58,33,29.86,29.70,18,5,20,0.00
2013-7-21,97,87,73,71,68,64,87,56,35,29.80,29.68,18,7,20,0.00
2013-7-22,98,87,76,74,71,68,81,60,40,29.81,29.68,17,7,23,0.00
2013-7-23,99,89,77,74,72,70,81,58,40,29.81,29.66,20,7,22,0.00
2013-7-24,97,86,75,72,70,66,81,60,41,29.89,29.70,45,8,45,0.00
2013-7-25,85,80,70,76,73,68,92,80,66,30.00,29.85,22,6,23,0.46
2013-7-26,88,80,74,76,71,66,90,75,49,29.99,29.80,28,7,30,0.23
2013-7-27,90,79,68,71,66,62,91,67,41,29.99,29.81,13,3,15,0.00
2013-7-28,90,80,68,68,65,59,90,64,38,29.89,29.75,19,6,21,0.00
2013-7-29,97,86,76,76,71,67,82,62,44,29.81,29.70,26,9,30,0.00
2013-7-30,100,88,76,74,70,67,78,58,40,29.90,29.76,23,5,23,0.00
2013-7-31,99,86,75,76,71,56,90,65,25,29.98,29.85,18,6,18,0.00
2013-8-1,97,85,74,74,71,66,89,65,38,29.97,29.81,17,4,17,0.00
2013-8-2,104,92,79,73,67,60,80,49,25,29.84,29.67,25,8,25,0.00
2013-8-3,104,91,79,66,63,59,59,41,24,29.85,29.72,22,9,24,0.00
2013-8-4,102,90,78,68,65,62,66,45,28,29.91,29.76,19,7,19,0.00
2013-8-5,104,91,78,69,65,61,69,44,26,29.85,29.65,19,8,21,0.00
2013-8-6,106,93,77,68,63,58,60,39,21,29.74,29.58,23,9,23,0.00
2013-8-7,100,90,73,71,67,63,92,48,33,29.77,29.61,38,6,43,0.03
2013-8-8,95,77,72,72,70,67,90,80,40,29.78,29.65,29,7,32,0.04
2013-8-9,92,80,68,72,68,66,91,69,44,29.97,29.77,20,5,21,0.00
2013-8-10,90,80,70,70,67,64,90,68,44,30.07,29.92,18,6,20,0.00
2013-8-11,99,83,68,72,68,64,92,65,37,30.02,29.85,26,4,26,0.12
2013-8-12,99,84,73,74,70,64,92,68,33,29.96,29.79,26,5,26,0.01
2013-8-13,90,80,72,74,70,69,90,74,51,29.96,29.83,18,5,18,0.00
2013-8-14,89,80,72,71,68,65,90,70,47,30.02,29.87,17,5,20,0.00
2013-8-15,95,81,71,73,69,64,88,68,43,29.96,29.83,17,5,19,0.00
2013-8-16,90,76,62,69,65,60,93,71,45,30.01,29.87,31,5,40,0.39
2013-8-17,88,77,67,68,65,63,90,69,47,30.04,29.90,18,6,18,0.00
2013-8-18,92,80,67,65,63,59,87,60,34,30.02,29.88,19,6,21,0.00
2013-8-19,94,82,69,64,63,60,83,54,35,29.96,29.83,25,7,25,0.00
2013-8-20,97,85,72,66,63,60,72,50,33,29.91,29.82,21,7,23,0.00
2013-8-21,95,84,68,66,60,56,73,46,28,29.98,29.86,21,5,23,0.00
2013-8-22,98,86,73,69,64,59,78,50,29,29.97,29.80,17,5,20,0.00
2013-8-23,100,88,73,68,65,58,75,49,26,29.92,29.78,20,5,21,0.00
2013-8-24,101,86,72,70,66,60,85,55,27,29.97,29.86,22,5,22,0.00
2013-8-25,98,87,74,70,66,61,80,53,32,30.03,29.93,18,5,20,0.00
2013-8-26,95,85,74,69,65,61,71,51,34,30.06,29.93,19,6,23,0.00
2013-8-27,91,82,69,70,66,62,79,60,47,30.00,29.88,20,6,22,0.00
2013-8-28,97,85,73,70,66,59,87,57,31,29.97,29.86,21,7,23,0.00
2013-8-29,101,88,72,63,61,57,70,43,24,29.97,29.83,21,6,25,0.00
2013-8-30,104,90,73,64,61,57,69,40,23,29.90,29.73,19,5,19,0.00
2013-8-31,106,92,75,62,58,54,57,35,20,29.79,29.65,17,5,19,0.00
2013-9-1,106,89,75,69,62,56,61,43,22,29.81,29.67,24,5,28,0.00
2013-9-2,97,84,72,73,65,58,81,56,32,29.92,29.78,16,5,21,0.00
2013-9-3,97,82,64,62,57,49,79,46,21,29.98,29.84,18,5,19,0.00
2013-9-4,98,83,64,64,56,38,79,45,13,30.02,29.89,18,4,20,0.00
2013-9-5,101,87,72,67,61,54,73,46,23,30.02,29.88,13,5,16,0.00
2013-9-6,101,88,72,66,62,59,67,44,27,29.98,29.82,17,4,18,0.00
2013-9-7,102,87,71,64,62,59,73,47,26,29.91,29.77,23,4,23,0.00
2013-9-8,98,86,71,68,61,55,74,46,25,29.87,29.73,21,5,22,0.00
2013-9-9,95,85,73,67,63,59,74,50,33,29.87,29.75,23,8,25,0.00
2013-9-10,93,82,73,70,66,62,78,58,39,29.98,29.83,23,8,26,0.08
2013-9-11,93,83,72,69,65,59,83,57,34,30.03,29.90,19,6,20,0.00
2013-9-12,96,83,68,66,62,59,78,51,30,30.01,29.84,16,3,17,0.00
2013-9-13,90,79,72,71,68,65,83,70,49,29.92,29.80,23,6,25,0.00
2013-9-14,93,80,72,70,67,64,87,68,40,29.91,29.77,19,5,19,0.00
2013-9-15,95,84,73,66,64,61,74,53,36,29.91,29.81,19,6,24,0.00
2013-9-16,92,80,70,70,67,64,93,67,42,30.02,29.87,26,7,28,0.27
2013-9-17,88,76,70,75,70,67,92,84,54,30.00,29.87,20,3,20,0.16
2013-9-18,94,83,75,70,66,60,81,58,33,29.90,29.73,26,8,27,0.00
2013-9-19,86,76,72,72,67,60,91,75,52,29.90,29.77,19,5,20,0.05
2013-9-20,72,67,60,69,62,55,91,83,65,29.99,29.80,23,9,24,0.18
2013-9-21,82,67,52,57,52,46,92,64,31,30.03,29.85,11,2,12,0.00
2013-9-22,84,70,54,55,52,49,90,57,31,29.88,29.71,17,4,20,0.00
2013-9-23,88,73,56,55,53,51,86,54,31,29.76,29.62,26,9,27,0.00
2013-9-24,90,76,61,56,50,43,77,44,20,29.95,29.76,18,5,20,0.00
2013-9-25,94,76,56,61,54,49,83,51,25,29.84,29.62,21,6,23,0.00
2013-9-26,96,82,70,62,60,53,72,50,28,29.72,29.63,28,11,30,0.00
2013-9-27,91,79,69,71,65,53,79,62,44,29.78,29.63,28,11,29,0.00
2013-9-28,80,69,57,72,58,45,93,69,35,30.08,29.68,25,9,26,0.77
2013-9-29,81,64,50,56,48,38,92,63,23,30.09,29.87,10,2,10,0.00
2013-9-30,88,72,57,61,54,50,80,57,35,29.89,29.67,24,8,24,0.00
2013-10-1,90,76,62,66,60,54,80,60,41,29.80,29.71,23,8,25,0.00
2013-10-2,89,78,69,72,66,62,87,68,51,29.83,29.69,30,9,30,0.00
2013-10-3,92,80,70,70,68,64,90,68,42,29.75,29.58,29,11,30,0.00
2013-10-4,91,81,66,70,67,62,92,63,46,29.76,29.60,30,12,32,0.22
2013-10-5,70,60,50,63,40,34,93,50,27,30.10,29.76,34,10,37,0.22
2013-10-6,79,60,45,42,37,30,82,49,18,30.18,30.03,21,5,25,0.00
2013-10-7,83,64,47,48,42,39,81,49,23,30.16,30.01,11,2,12,0.00
2013-10-8,85,70,53,48,42,37,62,39,23,30.03,29.84,20,7,21,0.00
2013-10-9,84,72,56,54,49,46,70,46,29,29.95,29.82,26,9,27,0.00
2013-10-10,85,73,62,64,58,52,79,61,43,29.90,29.68,28,11,29,0.00
2013-10-11,90,75,64,62,48,33,88,46,15,29.78,29.67,23,7,25,0.00
2013-10-12,80,66,54,51,47,39,73,53,35,30.08,29.76,23,6,23,0.00
2013-10-13,73,67,57,66,59,49,89,78,70,30.20,30.03,25,7,26,0.00
2013-10-14,79,72,67,70,67,64,92,86,73,30.06,29.75,17,7,19,0.00
2013-10-15,72,60,53,68,47,39,91,63,46,30.11,29.79,33,10,33,0.00
2013-10-16,59,52,42,44,39,36,81,62,46,30.20,30.08,18,6,19,0.00
2013-10-17,75,55,35,48,42,33,92,65,37,30.11,29.92,16,4,17,0.00
2013-10-18,59,51,38,55,46,36,93,84,63,30.24,29.88,30,7,32,0.07
2013-10-19,69,50,32,44,36,30,94,65,25,30.26,30.03,15,4,15,0.01
2013-10-20,77,60,43,55,46,37,83,63,40,30.03,29.71,24,7,24,0.00
2013-10-21,66,56,44,52,43,36,90,65,35,30.14,29.80,31,10,32,0.00
2013-10-22,81,58,38,44,39,34,85,54,21,30.16,29.99,15,5,22,0.00
2013-10-23,86,64,42,44,38,32,85,46,15,30.09,29.94,23,5,27,0.00
2013-10-24,68,57,45,46,42,35,89,61,38,30.31,30.03,22,6,22,0.00
2013-10-25,68,54,38,52,43,34,87,68,48,30.41,30.14,15,5,19,0.00
2013-10-26,76,63,55,62,55,50,91,76,45,30.15,29.98,22,6,22,0.02
2013-10-27,71,58,42,52,42,33,83,59,27,30.13,29.92,13,4,15,0.00
2013-10-28,77,64,54,66,60,52,93,86,67,30.00,29.84,22,8,22,0.00
2013-10-29,82,75,67,68,66,64,90,76,59,29.92,29.78,24,11,26,0.00
2013-10-30,81,74,62,69,67,60,93,81,59,29.85,29.62,33,11,40,0.52
2013-10-31,70,61,53,60,47,38,93,61,34,29.82,29.56,41,9,41,0.08
2013-11-1,72,58,41,49,41,33,93,58,25,30.16,29.74,28,8,28,0.00
2013-11-2,68,53,39,38,34,30,78,51,25,30.35,30.14,13,3,13,0.00
2013-11-3,66,56,46,45,37,34,65,50,34,30.14,29.84,30,11,32,0.00
2013-11-4,75,62,50,57,50,43,90,66,45,29.95,29.85,21,8,25,0.00
2013-11-5,75,64,49,64,59,46,94,86,68,30.04,29.77,26,10,30,0.19
2013-11-6,57,48,39,46,37,33,87,68,40,30.40,30.04,29,8,29,0.01
2013-11-7,68,50,32,40,34,28,94,60,24,30.53,30.34,13,4,14,0.00
2013-11-8,67,54,40,42,34,25,77,51,21,30.34,30.01,31,12,33,0.00
2013-11-9,69,56,46,52,45,40,91,69,46,30.17,30.00,17,6,19,0.00
2013-11-10,61,54,49,54,51,47,93,90,79,30.31,30.17,12,4,12,0.00
2013-11-11,70,59,45,58,54,40,93,84,63,30.41,30.11,34,8,41,0.00
2013-11-12,45,38,24,40,21,12,83,54,29,30.80,30.41,32,12,35,0.00
2013-11-13,54,36,16,23,15,10,88,49,17,30.75,30.32,17,6,17,0.00
2013-11-14,38,37,35,23,22,20,62,54,48,30.32,30.22,15,8,15,0.00
2013-11-16,85,77,66,57,51,44,72,42,25,29.65,29.44,37,12,38,0.00
2013-11-17,77,65,52,56,42,28,85,48,22,30.04,29.53,21,8,24,0.00
2013-11-18,66,54,42,33,27,17,59,37,16,30.24,30.04,16,3,16,0.00
2013-11-19,68,59,52,44,39,33,56,47,40,30.14,29.84,28,10,28,0.00
2013-11-20,77,65,56,60,54,42,83,66,48,29.86,29.70,25,10,28,0.00
2013-11-21,76,55,32,63,48,23,89,77,52,30.42,29.79,37,12,38,0.00
2013-11-22,32,29,27,28,25,20,93,84,66,30.63,30.41,33,13,35,0.00
2013-11-23,37,34,30,28,24,19,83,69,51,30.72,30.61,27,12,27,0.00
2013-11-24,34,28,26,27,25,23,94,87,67,30.73,30.36,20,6,20,0.00
2013-11-25,37,33,29,33,30,27,94,91,83,30.36,30.21,12,4,12,0.03
2013-11-26,48,38,29,32,29,25,91,72,48,30.49,30.28,24,7,26,0.00
2013-11-27,46,34,22,27,24,19,91,68,40,30.53,30.32,16,4,16,0.00
2013-11-28,59,44,31,35,30,26,89,61,33,30.39,30.28,16,6,16,0.00
2013-11-29,61,46,31,38,33,27,85,62,37,30.43,30.24,23,7,24,0.00
2013-11-30,68,52,40,47,42,36,90,73,44,30.25,30.06,15,5,16,0.00
2013-12-1,63,49,39,48,42,36,93,78,50,30.09,29.91,12,2,13,0.00
2013-12-2,71,50,30,45,37,28,94,67,28,29.91,29.60,9,2,10,0.00
2013-12-3,81,57,36,40,33,26,85,47,14,29.60,29.44,20,5,20,0.00
2013-12-4,51,43,31,35,30,18,83,61,44,30.08,29.47,25,9,26,0.00
2013-12-5,31,24,19,19,14,9,90,67,47,30.36,30.08,31,13,35,0.00
2013-12-6,24,17,6,16,12,1,91,79,64,30.68,30.33,21,8,22,0.00
2013-12-7,19,12,2,12,5,-2,83,73,66,30.74,30.36,20,5,22,0.00
2013-12-8,36,25,17,28,20,12,90,81,68,30.37,30.02,18,6,20,0.00
2013-12-9,26,22,11,22,18,8,92,82,70,30.53,30.21,21,8,21,0.00
2013-12-10,41,24,6,29,18,3,92,77,59,30.55,30.26,21,6,22,0.00
2013-12-11,37,29,18,28,24,16,92,81,66,30.68,30.27,28,8,32,0.00
2013-12-12,40,32,20,34,28,17,93,84,72,30.68,30.24,16,5,17,0.01
2013-12-13,58,46,39,45,39,34,93,79,59,30.25,29.70,27,9,27,0.00
2013-12-14,50,38,29,36,28,24,85,68,37,30.35,29.84,29,10,30,0.00
2013-12-15,62,43,29,36,30,24,87,64,30,30.35,30.17,16,4,16,0.00
2013-12-16,69,46,27,37,30,24,88,59,25,30.21,30.11,14,2,15,0.00
2013-12-17,69,46,30,37,32,25,87,61,26,30.33,30.19,10,2,11,0.00
2013-12-18,70,49,29,44,36,26,91,64,31,30.27,29.84,24,7,27,0.00
2013-12-19,71,59,52,51,48,43,84,69,42,29.84,29.58,28,12,28,0.00
2013-12-20,56,35,30,50,29,20,94,78,62,29.99,29.64,30,8,33,0.00
2013-12-21,33,32,30,32,30,27,95,94,89,29.91,29.65,0,0,0,0.00
2013-12-22,38,28,24,30,26,23,93,89,73,30.42,29.90,5,1,10,0.02
2013-12-23,46,32,25,34,27,22,93,85,61,30.61,30.41,19,5,19,0.06
2013-12-24,53,35,24,42,30,23,95,84,63,30.60,30.13,20,7,22,0.00
2013-12-25,49,37,29,36,31,26,94,81,54,30.48,30.19,21,7,23,0.00
2013-12-26,56,38,23,36,28,21,92,70,35,30.48,30.31,13,3,14,0.00
2013-12-27,60,41,27,37,28,23,89,64,27,30.44,30.30,16,3,17,0.00
2013-12-28,56,44,30,45,36,26,90,76,56,30.30,29.90,21,6,22,0.00
2013-12-29,43,31,22,41,24,15,94,75,60,30.38,29.89,36,11,38,0.00
2013-12-30,46,29,16,25,19,13,90,68,41,30.46,30.31,12,2,13,0.00
2013-12-31,57,39,21,32,27,18,90,65,36,30.46,30.07,23,7,24,0.00
2014-1-1,60,42,26,36,30,20,86,64,35,30.38,29.88,30,11,31,0.00
2014-1-2,32,26,20,21,18,16,82,73,62,30.59,30.38,27,7,27,0.00